FENGYUN 1C DEB, 32198

Orbit data source: Space-Track

FENGYUN 1C DEB, 32198 is space debris in SSO originally from a launch on Mon, 10 May 1999 UTC launched from the Taiyaun Space Center, China (TSC). Fengyun 1C debris stems from the Chinese weather satellite Fengyun-1C, which was intentionally destroyed by a Chinese anti-satellite missile in 2007. This event dramatically increased the amount of space debris, with thousands of trackable fragments posing hazards to satellites and human spaceflight. The Fengyun 1C debris cloud has become a focal point in discussions about space sustainability and the need for international regulations to prevent the creation of new debris.

Loading next visibility...
Identifier
32198, 1999-025CUU
Orbit
SSO
Country
Flag of CNCN / PRC
Related business
Manufacturer
Unknown
Mission
Spacecraft
Bus & Motor
Unknown
Mass
Unknown
Launch date (UTC)
1999-05-10 (27 years ago)
Launch vehicle
Unknown
Launch site
Taiyaun Space Center, China (TSC)
Object type
Payload
Rocket body
Debris
Shape & HBR
Unknown shape, 0.1 m
Radar Cross Section
Small (<0.1 m²)

Expand to show TLE details & history
Last TLE update: 1 month ago

TLE from 1 month ago
0 FENGYUN 1C DEB
1 32198U 99025CUU 26137.60653117  .00002255  00000-0  12496-2 0  9994
2 32198  98.3513 278.2003 0094069 204.6602 155.0058 14.09948346591416
Epoch: 2026-05-17T14:33Z
TLE epoch observation values (Epoch: 2026-05-17T14:33:24.293Z)
Latitude
0.00002°
Longitude
-175.45765°
Altitude
924.294 km
Speed
7.358 km/s
True Right ascension
18h 32m 48s
True Declination
0° 00' 00"
Sunlit
Object was in full shadow at epoch
Visualization orbit readout
Latitude
Unknown
Longitude
Unknown
Altitude
Unknown
Speed
Unknown
Apparent Right ascension
Unknown
Apparent Declination
Unknown
Sunlit
N/A
Visualization observer readout
Local Sidereal Time
10:06:49
Azimuth
Unknown
Elevation
Unknown
Doppler factor
Unknown
Orbital elements
Apogee altitude
924.761 km
Perigee altitude
788.646 km
Semi-major axis
7,234.84 km
Eccentricity
0.00941
Inclination
98.3513°
RAAN
278.2003°
Arg. of periapsis
204.6602°
True anomaly
155.45645°
Mean anomaly
155.0058°
Eccentric anomaly
155.2316°
Mean motion
3.52695 °/min
Orbital period
102.07 mins
BSTAR
0.0012496
Loading maneuver chart data...
Computing Atmospheric mass density...

Documentation

Showing up to 5 results
|